Lapse_Rate
8.2 8.1 8.0 8.0 8.2 7.9 7.7 7.5 7.7 7.8 7.8 7.7 7.7 7.8 7.8 7.7 7.7 7.3 7.0 7.0 7.1 7.0 7.0 7.1 7.1 7.0 7.0 6.9 6.9 6.9 6.9 6.8 6.7 6.6 6.6 6.5 6.4 6.4 6.3 6.3 6.3 6.3 6.3
8.2 8.0 7.9 7.8 8.0 8.0 7.8 7.6 7.6 7.8 7.8 7.8 7.8 7.8 7.8 7.7 7.6 7.6 7.1 6.9 6.9 6.9 6.9 6.9 7.0 7.1 7.1 7.0 6.9 6.8 6.8 6.8 6.8 6.8 6.8 6.6 6.5 6.4 6.5 6.4 6.3 6.2 6.2
8.1 8.0 7.8 7.8 7.8 7.9 7.9 7.7 7.6 7.8 7.8 7.8 7.8 7.8 7.8 7.8 7.8 7.7 7.4 6.9 6.8 6.8 6.8 6.8 6.9 7.0 7.0 7.0 7.1 7.1 6.9 6.9 6.8 6.7 6.6 6.6 6.5 6.5 6.5 6.4 6.4 6.2 6.2
8.2 8.0 8.0 7.8 7.8 7.9 7.8 7.8 7.7 7.7 7.8 7.8 7.7 7.8 7.8 7.8 7.9 7.8 7.5 7.2 6.9 6.9 6.9 6.9 6.9 6.9 6.9 7.1 7.1 7.2 7.1 6.9 6.8 6.7 6.6 6.6 6.7 6.7 6.6 6.5 6.4 6.3 6.3
8.4 8.1 8.0 7.9 7.8 7.8 7.8 7.8 7.7 7.8 7.9 7.8 7.8 7.7 7.7 7.8 7.8 7.8 7.6 7.5 7.3 7.1 7.2 7.1 7.1 7.1 7.1 7.1 7.1 7.1 7.1 6.9 6.8 6.7 6.5 6.4 6.6 6.8 6.8 6.7 6.6 6.4 6.3
8.3 8.1 7.8 7.7 7.7 7.8 7.8 7.8 7.7 7.7 7.7 7.8 7.8 7.7 7.7 7.7 7.7 7.8 7.8 7.6 7.4 7.3 7.2 7.3 7.4 7.4 7.4 7.4 7.3 7.3 7.2 7.1 7.0 6.8 6.7 6.7 6.6 6.6 6.7 6.8 6.6 6.4 6.3
8.1 8.1 7.6 7.5 7.5 7.7 7.8 7.8 7.8 7.8 7.8 7.8 7.8 7.7 7.7 7.7 7.7 7.7 7.9 7.7 7.5 7.4 7.2 7.3 7.3 7.3 7.3 7.3 7.3 7.4 7.3 7.1 6.8 6.9 6.9 6.7 6.7 6.5 6.7 6.7 6.7 6.6 6.4
8.0 7.9 7.7 7.6 7.6 7.7 7.9 7.9 7.9 7.8 7.8 7.8 7.8 7.7 7.7 7.7 7.6 7.6 7.7 7.8 7.6 7.5 7.3 7.2 7.2 7.2 7.2 7.2 7.2 7.1 7.2 7.3 7.1 7.0 7.0 6.9 6.7 6.5 6.5 6.7 6.7 6.7 6.5
7.7 7.7 7.6 7.6 7.8 7.6 7.9 7.9 8.0 8.0 7.9 7.9 7.8 7.8 7.8 7.7 7.6 7.6 7.6 7.8 7.7 7.5 7.4 7.3 7.1 7.2 7.2 7.2 7.2 7.2 7.1 7.1 7.2 7.0 6.9 6.8 6.7 6.5 6.3 6.5 6.5 6.4 6.6
7.5 7.4 7.5 7.4 7.6 7.5 7.7 7.9 7.9 8.0 7.9 7.9 8.0 7.9 7.9 7.8 7.7 7.6 7.6 7.6 7.6 7.5 7.4 7.3 7.2 7.0 7.2 7.2 7.2 7.2 7.1 7.1 7.0 7.0 7.0 6.9 6.8 6.6 6.3 6.3 6.4 6.3 6.3
7.5 7.4 7.5 7.4 7.4 7.6 7.3 7.5 7.7 8.0 7.9 7.9 8.1 8.0 8.0 7.9 7.8 7.7 7.6 7.6 7.5 7.5 7.4 7.3 7.2 7.0 7.0 7.1 7.1 7.0 7.1 7.1 7.0 7.0 7.1 7.2 7.0 6.8 6.7 6.5 6.4 6.3 6.2
7.6 7.4 7.5 7.4 7.4 7.3 6.9 7.0 7.3 7.5 7.7 7.8 7.9 7.9 8.1 7.8 7.8 7.7 7.7 7.7 7.6 7.6 7.4 7.2 7.1 7.0 7.1 6.9 7.0 7.0 7.0 7.0 7.0 7.0 7.0 7.1 7.1 7.0 6.9 6.6 6.4 6.3 6.3
7.8 7.5 7.4 7.3 7.0 6.9 6.6 6.7 6.7 7.1 7.3 7.5 7.7 7.9 7.9 7.8 7.8 7.8 7.8 7.7 7.7 7.5 7.4 7.2 7.1 6.9 7.1 7.1 6.9 6.8 6.8 6.9 7.0 7.0 7.0 7.0 7.1 7.1 7.1 6.9 6.9 6.7 6.7
7.8 7.5 7.3 7.1 7.1 6.7 6.4 6.4 6.5 6.6 6.8 7.2 7.4 7.5 7.7 7.7 7.8 7.6 7.7 7.6 7.6 7.5 7.5 7.4 7.2 7.2 7.3 7.3 7.2 7.1 6.9 6.8 6.9 7.0 6.9 6.8 6.8 6.9 7.0 7.0 6.9 7.0 7.0
7.6 7.5 7.3 7.1 7.1 6.9 6.6 6.3 6.3 6.5 6.8 6.8 6.8 7.0 7.4 7.6 7.5 7.6 7.3 7.5 7.6 7.6 7.6 7.3 7.2 7.2 7.3 7.3 7.2 7.0 6.9 6.9 6.9 6.9 7.0 6.9 6.8 6.8 6.9 6.9 6.8 6.6 6.6
7.7 7.6 7.3 7.3 7.1 7.3 6.9 6.4 6.3 6.3 6.7 6.9 6.8 7.0 7.2 7.3 7.1 6.9 7.4 7.6 7.3 7.4 7.4 7.4 7.3 7.2 7.1 7.4 7.3 7.0 7.0 6.8 6.8 6.9 6.9 6.9 6.8 6.7 6.7 6.8 6.6 6.7 6.7
7.6 7.5 7.3 7.4 7.1 7.1 6.9 6.5 6.3 6.4 6.5 6.7 7.0 7.0 7.1 7.2 7.2 7.0 7.3 7.3 7.3 6.8 6.9 6.9 6.9 6.9 6.9 7.4 7.2 7.0 6.8 6.6 6.8 6.8 6.7 6.6 6.8 6.7 6.7 6.8 6.6 6.7 6.8
7.3 7.5 7.1 7.3 7.0 7.0 6.9 6.6 6.5 6.4 6.3 6.4 6.8 7.0 7.0 7.0 7.1 7.0 6.9 7.0 6.7 6.7 6.6 6.7 6.7 6.8 6.9 6.9 6.7 6.7 6.8 7.0 6.8 6.5 6.4 6.5 6.5 6.6 6.6 6.6 6.4 6.5 6.4
7.2 7.1 7.0 7.0 6.9 6.9 6.7 6.5 6.6 6.5 6.3 6.3 6.5 6.7 6.7 6.7 6.7 6.5 6.6 6.6 6.5 6.4 6.5 6.7 6.8 6.7 6.8 6.8 6.5 6.4 6.5 6.6 6.6 6.6 6.5 6.3 6.1 6.4 6.5 6.5 6.4 6.3 5.9
6.9 6.8 6.7 6.8 6.8 6.8 6.7 6.7 6.6 6.3 6.3 6.1 6.4 6.4 6.4 6.4 6.4 6.5 6.5 6.5 6.3 6.4 6.6 6.6 6.5 6.5 6.5 6.5 6.2 6.0 6.2 6.2 6.3 6.2 6.4 5.8 5.9 5.8 5.8 6.1 5.9 5.5 5.4
6.8 6.9 6.8 6.8 6.7 6.8 6.7 6.7 6.5 6.4 6.3 6.0 6.1 6.1 6.1 5.9 6.0 6.1 6.4 6.6 6.3 6.3 6.5 6.5 6.3 6.7 6.4 6.2 6.0 5.9 5.8 5.7 5.8 5.7 5.9 5.8 6.0 5.9 5.8 5.8 5.6 5.5 5.1
6.8 6.7 6.8 6.7 6.7 6.8 6.5 6.5 6.4 6.2 6.2 6.1 5.8 5.9 5.8 5.8 6.0 5.9 6.4 6.6 6.5 6.4 6.5 6.4 6.6 6.6 6.4 6.3 6.2 6.1 6.1 6.1 6.2 5.9 5.7 5.4 5.7 5.8 5.1 5.5 5.6 5.2 5.0
6.5 6.4 6.7 6.7 6.6 6.4 6.4 6.3 6.2 6.2 6.2 6.2 6.0 5.8 5.7 6.0 6.1 6.2 6.3 6.6 6.5 6.4 6.5 6.4 6.4 6.5 6.4 6.5 6.6 6.3 6.2 6.4 6.6 5.7 5.9 5.6 5.6 5.8 5.5 5.3 5.3 5.0 4.6
6.4 6.5 6.6 6.5 6.4 6.3 6.3 6.1 6.0 6.1 6.1 5.9 5.5 5.6 6.0 6.2 6.3 6.3 6.2 6.2 6.3 6.4 6.5 6.7 6.7 6.6 6.5 6.6 6.4 6.5 6.4 6.0 6.3 4.9 6.0 5.5 5.1 5.4 5.2 5.2 5.4 5.1 4.8
6.2 6.4 6.5 6.5 6.3 6.2 6.4 6.1 6.2 6.2 6.4 6.3 5.7 5.5 5.6 6.2 6.4 6.6 6.5 6.6 6.6 6.5 6.5 6.5 6.4 6.3 6.3 6.4 6.5 6.3 5.8 5.8 5.7 5.9 5.5 5.9 5.9 5.6 5.4 5.2 5.2 5.6 5.6
6.5 6.5 6.5 6.5 6.4 6.5 6.4 6.3 6.1 6.2 6.2 6.2 6.0 5.5 5.5 5.9 5.9 6.1 6.3 6.5 6.6 6.5 6.2 6.0 5.9 6.0 6.1 5.9 6.1 5.9 6.1 6.0 5.7 5.2 5.7 5.5 5.5 5.6 5.5 5.6 5.8 5.8 5.2
Wind_Speed
5 12 18 19 20 21 20 18 18 21 23 23 24 25 25 23 22 20 18 17 17 17 18 19 20 20 20 20 20 20 19 19 18 17 18 18 18 17 15 18 17 17 19
10 15 20 20 21 23 22 21 20 20 21 22 22 22 23 22 21 20 18 16 17 18 18 19 20 21 20 20 19 19 18 18 17 16 18 17 16 16 16 17 17 16 18
13 16 18 21 21 22 24 23 22 21 21 21 21 20 20 21 21 19 19 16 16 16 17 17 19 20 21 19 19 19 17 17 17 16 14 15 14 15 15 15 16 17 16
13 16 16 20 21 21 21 22 22 23 22 23 21 20 19 19 20 20 19 19 17 16 17 16 17 17 17 17 17 18 18 17 17 17 16 14 13 14 14 15 15 15 13
10 14 15 20 20 21 21 20 21 22 22 22 22 20 19 19 19 19 20 20 19 17 18 17 15 14 14 15 14 13 13 11 10 9 11 12 13 13 13 14 15 14 13
9 12 17 20 20 20 22 20 19 20 20 21 21 20 19 18 18 17 19 18 19 18 18 17 17 15 13 13 11 9 7 5 5 4 6 11 11 12 12 10 13 15 15
9 12 18 18 19 20 20 21 21 21 21 20 20 20 19 17 17 17 18 17 17 17 17 18 19 17 15 14 11 7 6 5 2 1 5 10 13 13 12 9 10 13 14
11 11 16 19 19 20 20 21 21 21 20 20 20 20 18 18 17 16 16 16 17 16 16 15 17 16 14 13 11 8 5 3 1 1 7 15 15 15 12 13 11 12 13
7 8 13 15 16 21 22 22 23 22 21 20 19 19 19 19 18 16 16 15 15 15 14 13 12 13 12 10 9 6 2 2 3 6 11 16 16 13 13 13 11 12 13
6 7 10 15 17 15 18 23 24 23 21 20 20 20 20 20 18 17 16 15 14 13 13 12 12 10 9 8 7 5 3 3 5 7 11 13 13 12 12 11 10 10 11
4 8 10 11 14 15 15 19 22 22 23 21 19 18 18 15 16 15 14 14 13 12 11 9 9 10 8 8 7 5 4 6 6 5 8 11 13 10 12 13 14 12 12
9 8 11 12 12 14 13 15 15 16 16 16 16 17 14 13 14 13 14 14 14 13 11 9 6 6 7 5 5 4 5 5 5 5 7 12 12 12 12 12 12 14 14
8 7 13 12 13 13 11 13 12 11 12 14 15 15 13 13 12 11 11 11 12 12 10 8 7 4 7 6 4 5 6 6 5 4 5 11 11 11 12 14 15 15 14
10 11 11 13 13 14 11 11 12 11 13 12 15 16 13 9 10 10 7 10 11 12 10 11 8 7 7 8 8 6 8 7 6 5 7 10 12 15 15 14 13 13 15
9 12 13 14 14 12 8 9 10 9 12 15 15 16 14 11 6 11 11 11 11 12 11 8 9 7 6 7 6 8 9 8 7 6 6 7 10 13 14 11 14 17 21
11 13 12 15 13 10 11 10 9 11 11 13 13 15 17 15 11 11 8 9 10 11 11 8 5 4 3 5 5 8 10 9 8 8 9 10 12 15 16 19 20 21 23
14 8 14 14 13 13 13 8 7 10 13 10 12 16 19 17 14 12 7 6 8 13 12 8 3 1 1 2 4 6 9 9 9 11 12 13 18 25 24 26 23 22 23
12 13 11 12 14 14 13 9 6 9 11 11 13 14 20 18 15 10 5 7 11 9 9 5 4 3 3 4 4 4 6 7 10 11 12 14 16 19 24 25 24 23 23
14 9 12 13 14 14 12 9 7 7 7 11 12 14 17 14 13 10 5 6 12 8 5 5 2 3 3 3 4 4 4 4 9 10 12 11 13 17 17 23 23 20 19
12 15 14 13 12 12 7 6 4 5 6 10 10 13 15 13 13 11 7 7 10 5 5 5 4 3 3 5 4 3 2 3 5 8 11 11 12 18 18 20 21 20 20
8 9 15 15 14 12 9 9 6 9 7 6 5 11 11 11 11 11 6 5 8 8 8 9 4 6 1 4 5 3 3 4 3 4 8 10 14 13 18 18 18 20 20
4 5 8 11 13 11 9 7 3 4 2 2 3 5 9 11 12 11 8 7 9 7 6 8 7 3 2 8 3 2 3 1 2 3 3 3 6 9 11 13 13 17 19
6 6 7 8 10 8 7 6 4 5 3 2 2 2 2 6 9 10 8 5 7 8 8 9 11 11 5 7 8 4 3 3 2 2 2 3 6 3 8 11 14 11 15
6 6 7 9 10 7 9 7 8 3 5 2 2 2 2 2 3 5 6 5 5 5 7 7 6 9 8 9 5 2 3 2 2 2 2 4 3 7 3 10 13 13 17
5 6 8 9 7 7 7 7 5 4 3 2 2 5 4 2 4 3 2 4 5 5 6 7 7 8 8 7 9 4 1 1 2 2 5 2 4 4 6 8 9 12 14
4 6 7 9 6 7 7 7 7 7 5 4 3 3 3 2 0 2 2 1 1 0 2 4 6 8 8 6 5 3 2 3 3 3 2 5 4 4 4 7 10 10 13
Wind_Direction
207 157 151 144 138 129 126 121 113 111 115 119 119 122 123 123 122 120 119 119 117 113 110 108 105 103 103 104 104 105 103 103 109 115 111 107 104 103 93 89 91 93 95
138 157 155 146 138 134 132 130 124 120 121 121 121 123 126 126 123 122 121 120 117 115 113 113 111 109 108 108 106 106 108 105 105 108 107 107 108 109 105 100 99 100 99
145 154 157 148 139 138 137 136 134 130 127 125 125 126 128 128 128 127 124 120 115 114 112 111 111 113 114 112 114 115 112 108 104 108 113 106 112 114 115 114 110 103 103
146 153 157 151 143 140 138 136 135 136 135 133 133 134 135 133 132 129 123 118 115 112 108 108 111 111 112 115 118 122 123 117 115 112 116 119 120 121 119 112 111 109 104
141 153 156 154 148 142 139 140 138 140 139 139 138 138 138 136 134 130 126 124 120 117 115 109 104 103 107 113 116 117 120 115 112 104 120 127 131 134 130 127 119 119 110
139 147 156 157 150 147 146 147 144 142 142 140 139 140 139 140 138 136 132 130 128 125 123 119 112 107 101 91 85 83 81 66 70 91 140 143 139 140 136 133 130 130 123
143 144 159 162 156 153 152 153 152 151 149 146 146 145 144 144 143 141 137 132 131 130 132 130 125 121 117 110 101 90 76 70 47 324 200 166 152 149 151 142 140 126 124
146 145 163 174 163 159 158 159 158 158 157 155 154 151 149 149 149 146 145 142 140 137 136 135 130 129 127 124 122 120 112 110 77 12 148 164 167 152 155 146 144 134 126
123 139 162 177 168 169 168 167 166 167 166 164 162 159 157 157 157 156 154 151 149 144 143 140 132 130 127 123 119 116 106 162 159 151 145 166 171 162 159 156 150 145 133
134 145 170 179 184 173 172 176 173 170 172 173 172 171 167 164 164 165 163 160 157 152 152 151 142 132 121 120 123 122 115 89 139 148 159 172 172 164 156 156 152 142 133
164 168 176 183 188 187 175 179 177 174 172 177 177 178 173 167 169 170 172 166 164 161 160 163 150 131 118 119 131 136 142 120 127 138 172 178 175 158 157 157 153 160 139
196 184 184 187 188 189 189 186 180 179 172 170 175 178 174 170 175 176 180 175 172 173 168 164 156 122 115 119 106 100 118 111 116 145 165 169 173 162 162 160 154 132 129
195 177 190 188 188 187 191 187 186 182 175 172 173 172 168 172 172 179 187 183 180 178 169 164 159 151 126 124 112 106 120 125 123 110 158 178 178 167 147 137 141 145 143
179 189 181 189 189 194 183 185 185 187 186 187 184 178 168 164 173 185 186 190 189 185 181 178 180 176 148 151 156 144 148 142 134 122 121 139 142 136 138 148 148 149 124
192 193 188 184 191 192 181 179 184 188 188 189 189 187 177 178 185 187 178 188 199 189 189 191 178 184 174 170 181 170 158 141 127 117 122 139 150 143 140 145 130 116 107
209 201 182 190 189 184 191 183 184 183 180 187 194 194 185 186 184 184 195 203 184 183 194 201 208 195 181 163 145 146 138 139 134 129 125 126 134 129 121 120 113 103 97
218 192 192 189 183 184 189 189 181 176 178 189 195 195 198 195 190 185 184 188 213 188 188 176 166 199 155 127 132 142 151 139 129 122 118 108 116 119 118 114 113 112 106
215 196 184 188 185 185 187 178 178 179 182 194 197 197 203 198 190 178 177 195 188 184 169 170 164 170 171 173 157 159 154 135 124 121 118 118 123 116 117 116 122 126 125
206 176 182 186 189 186 183 173 170 182 189 202 199 207 210 199 188 185 185 180 175 182 177 178 156 152 178 167 173 147 155 150 142 129 110 114 118 124 132 133 134 131 127
208 190 181 182 177 173 164 148 138 172 193 191 196 203 199 195 186 185 182 178 177 182 181 179 173 157 166 142 137 97 101 108 116 132 128 127 122 136 139 142 137 133 134
234 195 186 173 171 161 166 168 176 195 186 187 193 189 186 190 186 190 198 186 186 202 200 193 159 169 45 134 106 73 38 75 100 130 139 146 141 152 142 131 132 129 134
242 181 168 169 163 169 170 171 148 145 164 164 133 171 191 187 184 192 200 201 201 207 194 179 175 162 120 177 152 111 157 191 80 82 97 142 141 148 138 127 123 120 132
54 131 141 141 149 153 130 116 82 87 87 126 160 147 166 198 197 208 205 192 194 204 218 205 192 183 170 196 188 152 173 221 124 103 97 97 117 109 101 100 92 94 101
56 83 109 122 132 123 132 132 159 174 188 150 114 126 162 180 196 211 217 218 209 205 208 210 211 207 187 195 201 148 79 73 187 148 162 132 73 104 105 94 96 89 96
57 84 99 100 106 120 136 141 139 127 111 127 134 148 149 90 62 63 173 191 198 183 197 188 189 198 205 190 199 158 179 144 171 144 141 168 95 89 87 90 104 105 111
71 102 109 111 112 121 122 128 145 158 159 157 154 165 131 106 13 208 182 186 170 112 174 194 198 199 195 195 188 182 178 163 162 155 123 122 126 116 123 139 134 127 133